Year,Month,Day,Hour,Minute,Value (Times are PST for temperature in C)
2011,05,19,00,00,8.60
2011,05,19,00,01,8.60
2011,05,19,00,02,8.50
2011,05,19,00,03,8.50
2011,05,19,00,04,8.40
2011,05,19,00,05,8.40
2011,05,19,00,06,8.30
2011,05,19,00,07,8.30
2011,05,19,00,08,8.30
2011,05,19,00,09,8.20
2011,05,19,00,10,8.20
2011,05,19,00,11,8.20
2011,05,19,00,12,8.20
2011,05,19,00,13,8.10
2011,05,19,00,14,8.10
2011,05,19,00,15,8.10
2011,05,19,00,16,8.00
2011,05,19,00,17,8.00
2011,05,19,00,18,8.00
2011,05,19,00,19,7.90
2011,05,19,00,20,7.90
2011,05,19,00,21,7.90
2011,05,19,00,22,7.80
2011,05,19,00,23,7.80
2011,05,19,00,24,7.80
2011,05,19,00,25,7.80
2011,05,19,00,26,7.80
2011,05,19,00,27,7.80
2011,05,19,00,28,7.80
2011,05,19,00,29,7.80
2011,05,19,00,30,7.70
2011,05,19,00,31,7.70
2011,05,19,00,32,7.70
2011,05,19,00,33,7.70
2011,05,19,00,34,7.70
2011,05,19,00,35,7.60
2011,05,19,00,36,7.60
2011,05,19,00,37,7.60
2011,05,19,00,38,7.60
2011,05,19,00,39,7.60
2011,05,19,00,40,7.60
2011,05,19,00,41,7.60
2011,05,19,00,42,7.60
2011,05,19,00,43,7.60
2011,05,19,00,44,7.60
2011,05,19,00,45,7.50
2011,05,19,00,46,7.50
2011,05,19,00,47,7.50
2011,05,19,00,48,7.50
2011,05,19,00,49,7.50
2011,05,19,00,50,7.50
2011,05,19,00,51,7.50
2011,05,19,00,52,7.50
2011,05,19,00,53,7.50
2011,05,19,00,54,7.50
2011,05,19,00,55,7.50
2011,05,19,00,56,7.50
2011,05,19,00,57,7.50
2011,05,19,00,58,7.50
2011,05,19,00,59,7.50
2011,05,19,01,00,7.50
2011,05,19,01,01,7.50
2011,05,19,01,02,7.50
2011,05,19,01,03,7.50
2011,05,19,01,04,7.50
2011,05,19,01,05,7.50
2011,05,19,01,06,7.50
2011,05,19,01,07,7.40
2011,05,19,01,08,7.40
2011,05,19,01,09,7.40
2011,05,19,01,10,7.40
2011,05,19,01,11,7.40
2011,05,19,01,12,7.30
2011,05,19,01,13,7.30
2011,05,19,01,14,7.30
2011,05,19,01,15,7.30
2011,05,19,01,16,7.30
2011,05,19,01,17,7.30
2011,05,19,01,18,7.20
2011,05,19,01,19,7.20
2011,05,19,01,20,7.20
2011,05,19,01,21,7.20
2011,05,19,01,22,7.20
2011,05,19,01,23,7.10
2011,05,19,01,24,7.10
2011,05,19,01,25,7.10
2011,05,19,01,26,7.10
2011,05,19,01,27,7.00
2011,05,19,01,28,7.00
2011,05,19,01,29,7.00
2011,05,19,01,30,7.00
2011,05,19,01,31,6.90
2011,05,19,01,32,6.90
2011,05,19,01,33,6.90
2011,05,19,01,34,6.90
2011,05,19,01,35,6.80
2011,05,19,01,36,6.80
2011,05,19,01,37,6.80
2011,05,19,01,38,6.80
2011,05,19,01,39,6.80
2011,05,19,01,40,6.80
2011,05,19,01,41,6.80
2011,05,19,01,42,6.70
2011,05,19,01,43,6.70
2011,05,19,01,44,6.70
2011,05,19,01,45,6.70
2011,05,19,01,46,6.70
2011,05,19,01,47,6.60
2011,05,19,01,48,6.60
2011,05,19,01,49,6.60
2011,05,19,01,50,6.60
2011,05,19,01,51,6.60
2011,05,19,01,52,6.60
2011,05,19,01,53,6.50
2011,05,19,01,54,6.40
2011,05,19,01,55,6.40
2011,05,19,01,56,6.40
2011,05,19,01,57,6.40
2011,05,19,01,58,6.40
2011,05,19,01,59,6.40
2011,05,19,02,00,6.40
2011,05,19,02,01,6.30
2011,05,19,02,02,6.30
2011,05,19,02,03,6.30
2011,05,19,02,04,6.30
2011,05,19,02,05,6.30
2011,05,19,02,06,6.20
2011,05,19,02,07,6.20
2011,05,19,02,08,6.20
2011,05,19,02,09,6.20
2011,05,19,02,10,6.20
2011,05,19,02,11,6.20
2011,05,19,02,12,6.20
2011,05,19,02,13,6.20
2011,05,19,02,14,6.20
2011,05,19,02,15,6.20
2011,05,19,02,16,6.20
2011,05,19,02,17,6.20
2011,05,19,02,18,6.20
2011,05,19,02,19,6.20
2011,05,19,02,20,6.20
2011,05,19,02,21,6.20
2011,05,19,02,22,6.20
2011,05,19,02,23,6.20
2011,05,19,02,24,6.20
2011,05,19,02,25,6.10
2011,05,19,02,26,6.10
2011,05,19,02,27,6.10
2011,05,19,02,28,6.10
2011,05,19,02,29,6.10
2011,05,19,02,30,6.00
2011,05,19,02,31,6.00
2011,05,19,02,32,6.00
2011,05,19,02,33,6.00
2011,05,19,02,34,5.90
2011,05,19,02,35,5.90
2011,05,19,02,36,5.90
2011,05,19,02,37,5.90
2011,05,19,02,38,5.90
2011,05,19,02,39,5.80
2011,05,19,02,40,5.80
2011,05,19,02,41,5.80
2011,05,19,02,42,5.80
2011,05,19,02,43,5.80
2011,05,19,02,44,5.80
2011,05,19,02,45,5.80
2011,05,19,02,46,5.80
2011,05,19,02,47,5.80
2011,05,19,02,48,5.80
2011,05,19,02,49,5.80
2011,05,19,02,50,5.80
2011,05,19,02,51,5.80
2011,05,19,02,52,5.80
2011,05,19,02,53,5.80
2011,05,19,02,54,5.70
2011,05,19,02,55,5.70
2011,05,19,02,56,5.70
2011,05,19,02,57,5.70
2011,05,19,02,58,5.70
2011,05,19,02,59,5.70
2011,05,19,03,00,5.70
2011,05,19,03,01,5.60
2011,05,19,03,02,5.60
2011,05,19,03,03,5.60
2011,05,19,03,04,5.50
2011,05,19,03,05,5.50
2011,05,19,03,06,5.50
2011,05,19,03,07,5.50
2011,05,19,03,08,5.50
2011,05,19,03,09,5.40
2011,05,19,03,10,5.40
2011,05,19,03,11,5.40
2011,05,19,03,12,5.40
2011,05,19,03,13,5.40
2011,05,19,03,14,5.40
2011,05,19,03,15,5.40
2011,05,19,03,16,5.40
2011,05,19,03,17,5.40
2011,05,19,03,18,5.40
2011,05,19,03,19,5.40
2011,05,19,03,20,5.40
2011,05,19,03,21,5.40
2011,05,19,03,22,5.40
2011,05,19,03,23,5.40
2011,05,19,03,24,5.40
2011,05,19,03,25,5.40
2011,05,19,03,26,5.40
2011,05,19,03,27,5.40
2011,05,19,03,28,5.40
2011,05,19,03,29,5.40
2011,05,19,03,30,5.40
2011,05,19,03,31,5.40
2011,05,19,03,32,5.40
2011,05,19,03,33,5.30
2011,05,19,03,34,5.30
2011,05,19,03,35,5.30
2011,05,19,03,36,5.30
2011,05,19,03,37,5.30
2011,05,19,03,38,5.30
2011,05,19,03,39,5.30
2011,05,19,03,40,5.20
2011,05,19,03,41,5.20
2011,05,19,03,42,5.20
2011,05,19,03,43,5.10
2011,05,19,03,44,5.10
2011,05,19,03,45,5.10
2011,05,19,03,46,5.10
2011,05,19,03,47,5.10
2011,05,19,03,48,5.10
2011,05,19,03,49,5.10
2011,05,19,03,50,5.10
2011,05,19,03,51,5.10
2011,05,19,03,52,5.10
2011,05,19,03,53,5.10
2011,05,19,03,54,5.10
2011,05,19,03,55,5.10
2011,05,19,03,56,5.10
2011,05,19,03,57,5.10
2011,05,19,03,58,5.10
2011,05,19,03,59,5.00
2011,05,19,04,00,4.90
2011,05,19,04,01,4.90
2011,05,19,04,02,4.90
2011,05,19,04,03,4.90
2011,05,19,04,04,4.90
2011,05,19,04,05,4.90
2011,05,19,04,06,4.90
2011,05,19,04,07,4.90
2011,05,19,04,08,4.90
2011,05,19,04,09,4.90
2011,05,19,04,10,4.90
2011,05,19,04,11,4.90
2011,05,19,04,12,4.90
2011,05,19,04,13,4.90
2011,05,19,04,14,4.90
2011,05,19,04,15,4.90
2011,05,19,04,16,4.90
2011,05,19,04,17,4.90
2011,05,19,04,18,4.90
2011,05,19,04,19,4.90
2011,05,19,04,20,4.90
2011,05,19,04,21,4.90
2011,05,19,04,22,4.90
2011,05,19,04,23,4.90
2011,05,19,04,24,4.90
2011,05,19,04,25,4.90
2011,05,19,04,26,4.90
2011,05,19,04,27,4.90
2011,05,19,04,28,4.80
2011,05,19,04,29,4.80
2011,05,19,04,30,4.80
2011,05,19,04,31,4.80
2011,05,19,04,32,4.80
2011,05,19,04,33,4.80
2011,05,19,04,34,4.80
2011,05,19,04,35,4.80
2011,05,19,04,36,4.80
2011,05,19,04,37,4.80
2011,05,19,04,38,4.70
2011,05,19,04,39,4.70
2011,05,19,04,40,4.70
2011,05,19,04,41,4.70
2011,05,19,04,42,4.70
2011,05,19,04,43,4.70
2011,05,19,04,44,4.70
2011,05,19,04,45,4.70
2011,05,19,04,46,4.70
2011,05,19,04,47,4.70
2011,05,19,04,48,4.70
2011,05,19,04,49,4.70
2011,05,19,04,50,4.70
2011,05,19,04,51,4.70
2011,05,19,04,52,4.70
2011,05,19,04,53,4.70
2011,05,19,04,54,4.70
2011,05,19,04,55,4.70
2011,05,19,04,56,4.70
2011,05,19,04,57,4.70
2011,05,19,04,58,4.70
2011,05,19,04,59,4.60
2011,05,19,05,00,4.60
2011,05,19,05,01,4.60
2011,05,19,05,02,4.60
2011,05,19,05,03,4.60
2011,05,19,05,04,4.60
2011,05,19,05,05,4.60
2011,05,19,05,06,4.60
2011,05,19,05,07,4.60
2011,05,19,05,08,4.50
2011,05,19,05,09,4.50
2011,05,19,05,10,4.50
2011,05,19,05,11,4.50
2011,05,19,05,12,4.50
2011,05,19,05,13,4.50
2011,05,19,05,14,4.40
2011,05,19,05,15,4.40
2011,05,19,05,16,4.40
2011,05,19,05,17,4.40
2011,05,19,05,18,4.40
2011,05,19,05,19,4.40
2011,05,19,05,20,4.50
2011,05,19,05,21,4.50
2011,05,19,05,22,4.50
2011,05,19,05,23,4.50
2011,05,19,05,24,4.50
2011,05,19,05,25,4.50
2011,05,19,05,26,4.50
2011,05,19,05,27,4.40
2011,05,19,05,28,4.40
2011,05,19,05,29,4.40
2011,05,19,05,30,4.40
2011,05,19,05,31,4.40
2011,05,19,05,32,4.40
2011,05,19,05,33,4.40
2011,05,19,05,34,4.30
2011,05,19,05,35,4.30
2011,05,19,05,36,4.30
2011,05,19,05,37,4.30
2011,05,19,05,38,4.30
2011,05,19,05,39,4.30
2011,05,19,05,40,4.30
2011,05,19,05,41,4.30
2011,05,19,05,42,4.30
2011,05,19,05,43,4.30
2011,05,19,05,44,4.30
2011,05,19,05,45,4.30
2011,05,19,05,46,4.30
2011,05,19,05,47,4.30
2011,05,19,05,48,4.40
2011,05,19,05,49,4.40
2011,05,19,05,50,4.40
2011,05,19,05,51,4.40
2011,05,19,05,52,4.40
2011,05,19,05,53,4.40
2011,05,19,05,54,4.40
2011,05,19,05,55,4.40
2011,05,19,05,56,4.40
2011,05,19,05,57,4.40
2011,05,19,05,58,4.40
2011,05,19,05,59,4.40
2011,05,19,06,00,4.40
2011,05,19,06,01,4.40
2011,05,19,06,02,4.40
2011,05,19,06,03,4.40
2011,05,19,06,04,4.40
2011,05,19,06,05,4.40
2011,05,19,06,06,4.40
2011,05,19,06,07,4.40
2011,05,19,06,08,4.40
2011,05,19,06,09,4.50
2011,05,19,06,10,4.50
2011,05,19,06,11,4.50
2011,05,19,06,12,4.50
2011,05,19,06,13,4.50
2011,05,19,06,14,4.50
2011,05,19,06,15,4.50
2011,05,19,06,16,4.60
2011,05,19,06,17,4.60
2011,05,19,06,18,4.60
2011,05,19,06,19,4.60
2011,05,19,06,20,4.60
2011,05,19,06,21,4.60
2011,05,19,06,22,4.70
2011,05,19,06,23,4.70
2011,05,19,06,24,4.70
2011,05,19,06,25,4.80
2011,05,19,06,26,4.80
2011,05,19,06,27,4.90
2011,05,19,06,28,4.90
2011,05,19,06,29,4.90
2011,05,19,06,30,5.00
2011,05,19,06,31,5.10
2011,05,19,06,32,5.10
2011,05,19,06,33,5.10
2011,05,19,06,34,5.10
2011,05,19,06,35,5.10
2011,05,19,06,36,5.20
2011,05,19,06,37,5.20
2011,05,19,06,38,5.20
2011,05,19,06,39,5.30
2011,05,19,06,40,5.30
2011,05,19,06,41,5.30
2011,05,19,06,42,5.30
2011,05,19,06,43,5.30
2011,05,19,06,44,5.40
2011,05,19,06,45,5.40
2011,05,19,06,46,5.50
2011,05,19,06,47,5.50
2011,05,19,06,48,5.60
2011,05,19,06,49,5.60
2011,05,19,06,50,5.70
2011,05,19,06,51,5.70
2011,05,19,06,52,5.80
2011,05,19,06,53,5.80
2011,05,19,06,54,5.90
2011,05,19,06,55,6.00
2011,05,19,06,56,6.10
2011,05,19,06,57,6.10
2011,05,19,06,58,6.20
2011,05,19,06,59,6.20
2011,05,19,07,00,6.20
2011,05,19,07,01,6.20
2011,05,19,07,02,6.30
2011,05,19,07,03,6.40
2011,05,19,07,04,6.40
2011,05,19,07,05,6.40
2011,05,19,07,06,6.50
2011,05,19,07,07,6.60
2011,05,19,07,08,6.60
2011,05,19,07,09,6.60
2011,05,19,07,10,6.60
2011,05,19,07,11,6.70
2011,05,19,07,12,6.70
2011,05,19,07,13,6.80
2011,05,19,07,14,6.80
2011,05,19,07,15,6.90
2011,05,19,07,16,6.90
2011,05,19,07,17,7.00
2011,05,19,07,18,7.00
2011,05,19,07,19,7.00
2011,05,19,07,20,7.00
2011,05,19,07,21,7.00
2011,05,19,07,22,7.00
2011,05,19,07,23,7.10
2011,05,19,07,24,7.10
2011,05,19,07,25,7.10
2011,05,19,07,26,7.10
2011,05,19,07,27,7.20
2011,05,19,07,28,7.20
2011,05,19,07,29,7.20
2011,05,19,07,30,7.20
2011,05,19,07,31,7.30
2011,05,19,07,32,7.30
2011,05,19,07,33,7.30
2011,05,19,07,34,7.30
2011,05,19,07,35,7.30
2011,05,19,07,36,7.40
2011,05,19,07,37,7.50
2011,05,19,07,38,7.50
2011,05,19,07,39,7.60
2011,05,19,07,40,7.70
2011,05,19,07,41,7.80
2011,05,19,07,42,7.80
2011,05,19,07,43,7.90
2011,05,19,07,44,8.00
2011,05,19,07,45,8.00
2011,05,19,07,46,8.10
2011,05,19,07,47,8.20
2011,05,19,07,48,8.20
2011,05,19,07,49,8.30
2011,05,19,07,50,8.40
2011,05,19,07,51,8.50
2011,05,19,07,52,8.60
2011,05,19,07,53,8.70
2011,05,19,07,54,8.90
2011,05,19,07,55,9.00
2011,05,19,07,56,9.10
2011,05,19,07,57,9.20
2011,05,19,07,58,9.30
2011,05,19,07,59,9.40
2011,05,19,08,00,9.50
2011,05,19,08,01,9.60
2011,05,19,08,02,9.70
2011,05,19,08,03,9.70
2011,05,19,08,04,9.80
2011,05,19,08,05,9.90
2011,05,19,08,06,10.00
2011,05,19,08,07,10.10
2011,05,19,08,08,10.20
2011,05,19,08,09,10.30
2011,05,19,08,10,10.40
2011,05,19,08,11,10.50
2011,05,19,08,12,10.60
2011,05,19,08,13,10.70
2011,05,19,08,14,10.80
2011,05,19,08,15,10.90
2011,05,19,08,16,10.90
2011,05,19,08,17,11.10
2011,05,19,08,18,11.10
2011,05,19,08,19,11.30
2011,05,19,08,20,11.30
2011,05,19,08,21,11.40
2011,05,19,08,22,11.40
2011,05,19,08,23,11.40
2011,05,19,08,24,11.50
2011,05,19,08,25,11.60
2011,05,19,08,26,11.60
2011,05,19,08,27,11.70
2011,05,19,08,28,11.80
2011,05,19,08,29,11.80
2011,05,19,08,30,11.80
2011,05,19,08,31,11.90
2011,05,19,08,32,12.00
2011,05,19,08,33,12.00
2011,05,19,08,34,12.10
2011,05,19,08,35,12.20
2011,05,19,08,36,12.20
2011,05,19,08,37,12.30
2011,05,19,08,38,12.30
2011,05,19,08,39,12.30
2011,05,19,08,40,12.30
2011,05,19,08,41,12.40
2011,05,19,08,42,12.40
2011,05,19,08,43,12.50
2011,05,19,08,44,12.40
2011,05,19,08,45,12.30
2011,05,19,08,46,12.30
2011,05,19,08,47,12.20
2011,05,19,08,48,12.20
2011,05,19,08,49,12.20
2011,05,19,08,50,12.20
2011,05,19,08,51,12.30
2011,05,19,08,52,12.30
2011,05,19,08,53,12.40
2011,05,19,08,54,12.50
2011,05,19,08,55,12.50
2011,05,19,08,56,12.60
2011,05,19,08,57,12.60
2011,05,19,08,58,12.60
2011,05,19,08,59,12.60
2011,05,19,09,00,12.70
2011,05,19,09,01,12.70
2011,05,19,09,02,12.70
2011,05,19,09,03,12.70
2011,05,19,09,04,12.70
2011,05,19,09,05,12.70
2011,05,19,09,06,12.70
2011,05,19,09,07,12.70
2011,05,19,09,08,12.80
2011,05,19,09,09,12.90
2011,05,19,09,10,13.00
2011,05,19,09,11,13.10
2011,05,19,09,12,13.10
2011,05,19,09,13,13.20
2011,05,19,09,14,13.30
2011,05,19,09,15,13.30
2011,05,19,09,16,13.30
2011,05,19,09,17,13.30
2011,05,19,09,18,13.40
2011,05,19,09,19,13.50
2011,05,19,09,20,13.50
2011,05,19,09,21,13.60
2011,05,19,09,22,13.50
2011,05,19,09,23,13.50
2011,05,19,09,24,13.50
2011,05,19,09,25,13.60
2011,05,19,09,26,13.60
2011,05,19,09,27,13.60
2011,05,19,09,28,13.60
2011,05,19,09,29,13.60
2011,05,19,09,30,13.60
2011,05,19,09,31,13.70
2011,05,19,09,32,13.70
2011,05,19,09,33,13.70
2011,05,19,09,34,13.70
2011,05,19,09,35,13.70
2011,05,19,09,36,13.70
2011,05,19,09,37,13.70
2011,05,19,09,38,13.70
2011,05,19,09,39,13.70
2011,05,19,09,40,13.70
2011,05,19,09,41,13.70
2011,05,19,09,42,13.80
2011,05,19,09,43,13.90
2011,05,19,09,44,13.90
2011,05,19,09,45,14.00
2011,05,19,09,46,14.00
2011,05,19,09,47,14.00
2011,05,19,09,48,14.00
2011,05,19,09,49,13.90
2011,05,19,09,50,13.70
2011,05,19,09,51,13.60
2011,05,19,09,52,13.50
2011,05,19,09,53,13.40
2011,05,19,09,54,13.30
2011,05,19,09,55,13.30
2011,05,19,09,56,13.30
2011,05,19,09,57,13.30
2011,05,19,09,58,13.20
2011,05,19,09,59,13.20
2011,05,19,10,00,13.20
2011,05,19,10,01,13.10
2011,05,19,10,02,13.10
2011,05,19,10,03,13.00
2011,05,19,10,04,12.90
2011,05,19,10,05,12.90
2011,05,19,10,06,12.90
2011,05,19,10,07,12.90
2011,05,19,10,08,12.90
2011,05,19,10,09,12.90
2011,05,19,10,10,12.90
2011,05,19,10,11,13.10
2011,05,19,10,12,13.30
2011,05,19,10,13,13.30
2011,05,19,10,14,13.30
2011,05,19,10,15,13.30
2011,05,19,10,16,13.30
2011,05,19,10,17,13.20
2011,05,19,10,18,13.20
2011,05,19,10,19,13.10
2011,05,19,10,20,13.20
2011,05,19,10,21,13.20
2011,05,19,10,22,13.20
2011,05,19,10,23,13.30
2011,05,19,10,24,13.30
2011,05,19,10,25,13.30
2011,05,19,10,26,13.30
2011,05,19,10,27,13.30
2011,05,19,10,28,13.40
2011,05,19,10,29,13.50
2011,05,19,10,30,13.50
2011,05,19,10,31,13.60
2011,05,19,10,32,13.60
2011,05,19,10,33,13.50
2011,05,19,10,34,13.50
2011,05,19,10,35,13.40
2011,05,19,10,36,13.40
2011,05,19,10,37,13.40
2011,05,19,10,38,13.40
2011,05,19,10,39,13.50
2011,05,19,10,40,13.50
2011,05,19,10,41,13.60
2011,05,19,10,42,13.60
2011,05,19,10,43,13.70
2011,05,19,10,44,13.70
2011,05,19,10,45,13.80
2011,05,19,10,46,13.90
2011,05,19,10,47,14.00
2011,05,19,10,48,14.00
2011,05,19,10,49,14.10
2011,05,19,10,50,14.10
2011,05,19,10,51,14.20
2011,05,19,10,52,14.20
2011,05,19,10,53,14.20
2011,05,19,10,54,14.20
2011,05,19,10,55,14.20
2011,05,19,10,56,14.20
2011,05,19,10,57,14.30
2011,05,19,10,58,14.20
2011,05,19,10,59,14.10
2011,05,19,11,00,14.00
2011,05,19,11,01,14.00
2011,05,19,11,02,14.00
2011,05,19,11,03,13.90
2011,05,19,11,04,13.90
2011,05,19,11,05,13.70
2011,05,19,11,06,13.60
2011,05,19,11,07,13.50
2011,05,19,11,08,13.60
2011,05,19,11,09,13.60
2011,05,19,11,10,13.60
2011,05,19,11,11,13.60
2011,05,19,11,12,13.70
2011,05,19,11,13,13.70
2011,05,19,11,14,13.60
2011,05,19,11,15,13.60
2011,05,19,11,16,13.60
2011,05,19,11,17,13.50
2011,05,19,11,18,13.50
2011,05,19,11,19,13.40
2011,05,19,11,20,13.30
2011,05,19,11,21,13.30
2011,05,19,11,22,13.30
2011,05,19,11,23,13.50
2011,05,19,11,24,13.60
2011,05,19,11,25,13.70
2011,05,19,11,26,13.70
2011,05,19,11,27,13.60
2011,05,19,11,28,13.60
2011,05,19,11,29,13.50
2011,05,19,11,30,13.60
2011,05,19,11,31,13.50
2011,05,19,11,32,13.50
2011,05,19,11,33,13.50
2011,05,19,11,34,13.40
2011,05,19,11,35,13.30
2011,05,19,11,36,13.40
2011,05,19,11,37,13.40
2011,05,19,11,38,13.40
2011,05,19,11,39,13.40
2011,05,19,11,40,13.40
2011,05,19,11,41,13.40
2011,05,19,11,42,13.40
2011,05,19,11,43,13.30
2011,05,19,11,44,13.30
2011,05,19,11,45,13.40
2011,05,19,11,46,13.50
2011,05,19,11,47,13.50
2011,05,19,11,48,13.40
2011,05,19,11,49,13.30
2011,05,19,11,50,13.20
2011,05,19,11,51,13.30
2011,05,19,11,52,13.30
2011,05,19,11,53,13.30
2011,05,19,11,54,13.30
2011,05,19,11,55,13.20
2011,05,19,11,56,13.20
2011,05,19,11,57,13.20
2011,05,19,11,58,13.30
2011,05,19,11,59,13.40
2011,05,19,12,00,13.50
2011,05,19,12,01,13.60
2011,05,19,12,02,13.70
2011,05,19,12,03,13.70
2011,05,19,12,04,13.70
2011,05,19,12,05,13.70
2011,05,19,12,06,13.70
2011,05,19,12,07,13.70
2011,05,19,12,08,13.70
2011,05,19,12,09,13.70
2011,05,19,12,10,13.60
2011,05,19,12,11,13.70
2011,05,19,12,12,13.80
2011,05,19,12,13,13.90
2011,05,19,12,14,13.90
2011,05,19,12,15,13.80
2011,05,19,12,16,13.60
2011,05,19,12,17,13.50
2011,05,19,12,18,13.40
2011,05,19,12,19,13.40
2011,05,19,12,20,13.50
2011,05,19,12,21,13.70
2011,05,19,12,22,13.80
2011,05,19,12,23,13.80
2011,05,19,12,24,13.90
2011,05,19,12,25,13.90
2011,05,19,12,26,13.70
2011,05,19,12,27,13.70
2011,05,19,12,28,13.70
2011,05,19,12,29,13.60
2011,05,19,12,30,13.60
2011,05,19,12,31,13.80
2011,05,19,12,32,13.90
2011,05,19,12,33,13.90
2011,05,19,12,34,13.90
2011,05,19,12,35,13.90
2011,05,19,12,36,13.80
2011,05,19,12,37,13.80
2011,05,19,12,38,13.90
2011,05,19,12,39,14.00
2011,05,19,12,40,14.10
2011,05,19,12,41,14.30
2011,05,19,12,42,14.50
2011,05,19,12,43,14.60
2011,05,19,12,44,14.80
2011,05,19,12,45,14.80
2011,05,19,12,46,14.80
2011,05,19,12,47,14.90
2011,05,19,12,48,15.10
2011,05,19,12,49,15.30
2011,05,19,12,50,15.50
2011,05,19,12,51,15.60
2011,05,19,12,52,15.70
2011,05,19,12,53,15.70
2011,05,19,12,54,15.70
2011,05,19,12,55,15.70
2011,05,19,12,56,15.80
2011,05,19,12,57,15.80
2011,05,19,12,58,15.60
2011,05,19,12,59,15.30
2011,05,19,13,00,15.10
2011,05,19,13,01,15.00
2011,05,19,13,02,15.00
2011,05,19,13,03,15.10
2011,05,19,13,04,15.30
2011,05,19,13,05,15.30
2011,05,19,13,06,15.30
2011,05,19,13,07,15.20
2011,05,19,13,08,15.20
2011,05,19,13,09,15.30
2011,05,19,13,10,15.40
2011,05,19,13,11,15.50
2011,05,19,13,12,15.50
2011,05,19,13,13,15.50
2011,05,19,13,14,15.60
2011,05,19,13,15,15.70
2011,05,19,13,16,15.70
2011,05,19,13,17,15.80
2011,05,19,13,18,15.80
2011,05,19,13,19,15.70
2011,05,19,13,20,15.60
2011,05,19,13,21,15.40
2011,05,19,13,22,15.40
2011,05,19,13,23,15.40
2011,05,19,13,24,15.30
2011,05,19,13,25,15.20
2011,05,19,13,26,15.10
2011,05,19,13,27,15.10
2011,05,19,13,28,15.20
2011,05,19,13,29,15.20
2011,05,19,13,30,15.20
2011,05,19,13,31,15.10
2011,05,19,13,32,15.10
2011,05,19,13,33,15.00
2011,05,19,13,34,14.90
2011,05,19,13,35,14.80
2011,05,19,13,36,14.90
2011,05,19,13,37,14.90
2011,05,19,13,38,15.00
2011,05,19,13,39,15.00
2011,05,19,13,40,14.90
2011,05,19,13,41,14.90
2011,05,19,13,42,14.80
2011,05,19,13,43,14.80
2011,05,19,13,44,14.80
2011,05,19,13,45,14.80
2011,05,19,13,46,14.80
2011,05,19,13,47,14.70
2011,05,19,13,48,14.70
2011,05,19,13,49,14.70
2011,05,19,13,50,14.80
2011,05,19,13,51,14.90
2011,05,19,13,52,15.00
2011,05,19,13,53,15.10
2011,05,19,13,54,15.30
2011,05,19,13,55,15.40
2011,05,19,13,56,15.40
2011,05,19,13,57,15.20
2011,05,19,13,58,15.00
2011,05,19,13,59,15.00
2011,05,19,14,00,15.20
2011,05,19,14,01,15.30
2011,05,19,14,02,15.30
2011,05,19,14,03,15.20
2011,05,19,14,04,15.10
2011,05,19,14,05,15.10
2011,05,19,14,06,15.00
2011,05,19,14,07,14.90
2011,05,19,14,08,14.90
2011,05,19,14,09,14.90
2011,05,19,14,10,14.90
2011,05,19,14,11,14.80
2011,05,19,14,12,14.70
2011,05,19,14,13,14.80
2011,05,19,14,14,14.80
2011,05,19,14,15,14.90
2011,05,19,14,16,14.80
2011,05,19,14,17,14.80
2011,05,19,14,18,14.80
2011,05,19,14,19,14.80
2011,05,19,14,20,14.70
2011,05,19,14,21,14.60
2011,05,19,14,22,14.50
2011,05,19,14,23,14.40
2011,05,19,14,24,14.40
2011,05,19,14,25,14.50
2011,05,19,14,26,14.50
2011,05,19,14,27,14.50
2011,05,19,14,28,14.50
2011,05,19,14,29,14.50
2011,05,19,14,30,14.40
2011,05,19,14,31,14.40
2011,05,19,14,32,14.40
2011,05,19,14,33,14.50
2011,05,19,14,34,14.50
2011,05,19,14,35,14.60
2011,05,19,14,36,14.60
2011,05,19,14,37,14.70
2011,05,19,14,38,14.70
2011,05,19,14,39,14.90
2011,05,19,14,40,15.00
2011,05,19,14,41,15.20
2011,05,19,14,42,15.10
2011,05,19,14,43,15.00
2011,05,19,14,44,14.90
2011,05,19,14,45,15.00
2011,05,19,14,46,15.10
2011,05,19,14,47,15.00
2011,05,19,14,48,15.00
2011,05,19,14,49,14.90
2011,05,19,14,50,14.90
2011,05,19,14,51,14.80
2011,05,19,14,52,14.80
2011,05,19,14,53,14.80
2011,05,19,14,54,14.80
2011,05,19,14,55,14.80
2011,05,19,14,56,14.80
2011,05,19,14,57,14.90
2011,05,19,14,58,14.90
2011,05,19,14,59,14.80
2011,05,19,15,00,14.70
2011,05,19,15,01,14.70
2011,05,19,15,02,14.60
2011,05,19,15,03,14.60
2011,05,19,15,04,14.70
2011,05,19,15,05,14.80
2011,05,19,15,06,14.90
2011,05,19,15,07,15.00
2011,05,19,15,08,15.10
2011,05,19,15,09,15.30
2011,05,19,15,10,15.40
2011,05,19,15,11,15.50
2011,05,19,15,12,15.40
2011,05,19,15,13,15.40
2011,05,19,15,14,15.30
2011,05,19,15,15,15.30
2011,05,19,15,16,15.30
2011,05,19,15,17,15.20
2011,05,19,15,18,15.20
2011,05,19,15,19,15.10
2011,05,19,15,20,15.10
2011,05,19,15,21,15.00
2011,05,19,15,22,15.00
2011,05,19,15,23,15.00
2011,05,19,15,24,15.20
2011,05,19,15,25,15.30
2011,05,19,15,26,15.40
2011,05,19,15,27,15.50
2011,05,19,15,28,15.60
2011,05,19,15,29,15.70
2011,05,19,15,30,15.80
2011,05,19,15,31,15.80
2011,05,19,15,32,15.90
2011,05,19,15,33,15.80
2011,05,19,15,34,15.80
2011,05,19,15,35,15.80
2011,05,19,15,36,15.80
2011,05,19,15,37,15.80
2011,05,19,15,38,15.90
2011,05,19,15,39,16.00
2011,05,19,15,40,16.10
2011,05,19,15,41,16.10
2011,05,19,15,42,16.10
2011,05,19,15,43,16.10
2011,05,19,15,44,16.10
2011,05,19,15,45,16.20
2011,05,19,15,46,16.20
2011,05,19,15,47,16.10
2011,05,19,15,48,16.10
2011,05,19,15,49,16.10
2011,05,19,15,50,16.10
2011,05,19,15,51,16.10
2011,05,19,15,52,16.10
2011,05,19,15,53,16.10
2011,05,19,15,54,16.10
2011,05,19,15,55,16.20
2011,05,19,15,56,16.30
2011,05,19,15,57,16.30
2011,05,19,15,58,16.40
2011,05,19,15,59,16.40
2011,05,19,16,00,16.40
2011,05,19,16,01,16.60
2011,05,19,16,02,16.70
2011,05,19,16,03,16.70
2011,05,19,16,04,16.80
2011,05,19,16,05,16.70
2011,05,19,16,06,16.80
2011,05,19,16,07,16.80
2011,05,19,16,08,16.80
2011,05,19,16,09,16.90
2011,05,19,16,10,17.00
2011,05,19,16,11,17.00
2011,05,19,16,12,17.00
2011,05,19,16,13,17.10
2011,05,19,16,14,17.30
2011,05,19,16,15,17.40
2011,05,19,16,16,17.40
2011,05,19,16,17,17.30
2011,05,19,16,18,17.30
2011,05,19,16,19,17.20
2011,05,19,16,20,17.10
2011,05,19,16,21,17.00
2011,05,19,16,22,16.90
2011,05,19,16,23,16.90
2011,05,19,16,24,16.80
2011,05,19,16,25,16.70
2011,05,19,16,26,16.70
2011,05,19,16,27,16.90
2011,05,19,16,28,16.90
2011,05,19,16,29,16.90
2011,05,19,16,30,17.00
2011,05,19,16,31,17.00
2011,05,19,16,32,17.00
2011,05,19,16,33,17.00
2011,05,19,16,34,17.10
2011,05,19,16,35,17.20
2011,05,19,16,36,17.30
2011,05,19,16,37,17.40
2011,05,19,16,38,17.60
2011,05,19,16,39,17.70
2011,05,19,16,40,17.80
2011,05,19,16,41,17.80
2011,05,19,16,42,17.80
2011,05,19,16,43,17.70
2011,05,19,16,44,17.50
2011,05,19,16,45,17.30
2011,05,19,16,46,17.10
2011,05,19,16,47,17.00
2011,05,19,16,48,16.90
2011,05,19,16,49,17.00
2011,05,19,16,50,17.10
2011,05,19,16,51,17.40
2011,05,19,16,52,17.60
2011,05,19,16,53,17.70
2011,05,19,16,54,17.70
2011,05,19,16,55,17.80
2011,05,19,16,56,17.80
2011,05,19,16,57,17.80
2011,05,19,16,58,17.80
2011,05,19,16,59,17.90
2011,05,19,17,00,17.90
2011,05,19,17,01,17.90
2011,05,19,17,02,18.00
2011,05,19,17,03,18.00
2011,05,19,17,04,17.90
2011,05,19,17,05,17.90
2011,05,19,17,06,17.90
2011,05,19,17,07,18.00
2011,05,19,17,08,18.10
2011,05,19,17,09,18.20
2011,05,19,17,10,18.30
2011,05,19,17,11,18.20
2011,05,19,17,12,18.20
2011,05,19,17,13,18.40
2011,05,19,17,14,18.40
2011,05,19,17,15,18.40
2011,05,19,17,16,18.40
2011,05,19,17,17,18.40
2011,05,19,17,18,18.50
2011,05,19,17,19,18.60
2011,05,19,17,20,18.60
2011,05,19,17,21,18.60
2011,05,19,17,22,18.60
2011,05,19,17,23,18.50
2011,05,19,17,24,18.50
2011,05,19,17,25,18.40
2011,05,19,17,26,18.40
2011,05,19,17,27,18.30
2011,05,19,17,28,18.30
2011,05,19,17,29,18.20
2011,05,19,17,30,18.20
2011,05,19,17,31,18.30
2011,05,19,17,32,18.30
2011,05,19,17,33,18.20
2011,05,19,17,34,18.10
2011,05,19,17,35,18.10
2011,05,19,17,36,18.10
2011,05,19,17,37,18.20
2011,05,19,17,38,18.20
2011,05,19,17,39,18.20
2011,05,19,17,40,18.20